TimeMST,TemperatureF,Dew PointF,Humidity,Sea Level PressureIn,VisibilityMPH,Wind Direction,Wind SpeedMPH,Gust SpeedMPH,PrecipitationIn,Events,Conditions,WindDirDegrees,DateUTC
12:15 AM,48.2,28.4,46,30.26,10.0,SSE,5.8,-,N/A,,Clear,160,2012-10-08 07:15:00
12:35 AM,46.4,28.4,50,30.26,10.0,SSE,8.1,-,N/A,,Clear,160,2012-10-08 07:35:00
12:55 AM,44.6,28.4,53,30.26,10.0,SSE,9.2,-,N/A,,Clear,160,2012-10-08 07:55:00
1:15 AM,44.6,28.4,53,30.26,10.0,SSE,8.1,-,N/A,,Clear,160,2012-10-08 08:15:00
1:35 AM,41.0,28.4,61,30.26,10.0,SSE,8.1,-,N/A,,Clear,150,2012-10-08 08:35:00
1:55 AM,41.0,28.4,61,30.25,10.0,SSE,9.2,-,N/A,,Clear,160,2012-10-08 08:55:00
2:15 AM,41.0,28.4,61,30.25,10.0,SSE,8.1,-,N/A,,Clear,160,2012-10-08 09:15:00
2:35 AM,41.0,28.4,61,30.25,10.0,SSE,8.1,-,N/A,,Clear,150,2012-10-08 09:35:00
2:55 AM,41.0,28.4,61,30.25,10.0,SSE,9.2,-,N/A,,Clear,150,2012-10-08 09:55:00
3:15 AM,39.2,28.4,65,30.25,10.0,SSE,10.4,-,N/A,,Clear,150,2012-10-08 10:15:00
3:35 AM,39.2,28.4,65,30.25,10.0,SSE,9.2,-,N/A,,Clear,150,2012-10-08 10:35:00
4:15 AM,39.2,28.4,65,30.25,10.0,SSE,9.2,-,N/A,,Clear,160,2012-10-08 11:15:00
4:35 AM,39.2,28.4,65,30.24,10.0,SSE,9.2,-,N/A,,Clear,160,2012-10-08 11:35:00
4:55 AM,39.2,28.4,65,30.25,10.0,SSE,10.4,-,N/A,,Clear,160,2012-10-08 11:55:00
5:15 AM,39.2,28.4,65,30.25,10.0,SSE,9.2,-,N/A,,Clear,150,2012-10-08 12:15:00
5:35 AM,37.4,28.4,70,30.25,10.0,SSE,9.2,-,N/A,,Clear,150,2012-10-08 12:35:00
5:55 AM,37.4,28.4,70,30.25,10.0,SSE,10.4,-,N/A,,Clear,160,2012-10-08 12:55:00
6:15 AM,39.2,28.4,65,30.26,10.0,SSE,10.4,-,N/A,,Clear,160,2012-10-08 13:15:00
6:35 AM,39.2,28.4,65,30.26,10.0,SSE,11.5,-,N/A,,Clear,160,2012-10-08 13:35:00
6:55 AM,37.4,28.4,70,30.26,10.0,SSE,9.2,-,N/A,,Clear,160,2012-10-08 13:55:00
7:15 AM,41.0,28.4,61,30.27,10.0,SSE,10.4,-,N/A,,Clear,150,2012-10-08 14:15:00
7:35 AM,44.6,30.2,57,30.27,10.0,SSE,8.1,-,N/A,,Clear,160,2012-10-08 14:35:00
7:55 AM,48.2,32.0,54,30.28,10.0,SSE,6.9,-,N/A,,Clear,150,2012-10-08 14:55:00
8:15 AM,53.6,32.0,44,30.28,10.0,SSE,6.9,-,N/A,,Clear,150,2012-10-08 15:15:00
8:35 AM,57.2,33.8,41,30.28,10.0,SE,5.8,-,N/A,,Clear,140,2012-10-08 15:35:00
8:55 AM,60.8,35.6,39,30.29,10.0,SSW,5.8,-,N/A,,Clear,210,2012-10-08 15:55:00
9:15 AM,64.4,35.6,34,30.29,10.0,WSW,8.1,-,N/A,,Clear,240,2012-10-08 16:15:00
9:35 AM,62.6,33.8,34,30.29,10.0,WSW,6.9,16.1,N/A,,Clear,250,2012-10-08 16:35:00
9:55 AM,64.4,33.8,32,30.29,10.0,SW,9.2,16.1,N/A,,Clear,230,2012-10-08 16:55:00
10:15 AM,64.4,32.0,30,30.28,10.0,SSW,12.7,17.3,N/A,,Clear,210,2012-10-08 17:15:00
10:35 AM,64.4,32.0,30,30.28,10.0,SW,11.5,-,N/A,,Clear,230,2012-10-08 17:35:00
10:55 AM,66.2,28.4,24,30.28,10.0,WSW,11.5,17.3,N/A,,Clear,250,2012-10-08 17:55:00
11:15 AM,66.2,28.4,24,30.27,10.0,SW,16.1,20.7,N/A,,Clear,220,2012-10-08 18:15:00
11:35 AM,66.2,32.0,28,30.27,10.0,SSW,10.4,19.6,N/A,,Clear,210,2012-10-08 18:35:00
11:55 AM,66.2,30.2,26,30.26,10.0,South,13.8,17.3,N/A,,Clear,190,2012-10-08 18:55:00
12:15 PM,66.2,32.0,28,30.26,10.0,SW,11.5,24.2,N/A,,Clear,220,2012-10-08 19:15:00
12:35 PM,66.2,32.0,28,30.25,10.0,SSW,12.7,20.7,N/A,,Clear,200,2012-10-08 19:35:00
1:15 PM,68.0,30.2,24,30.23,10.0,SW,12.7,21.9,N/A,,Clear,230,2012-10-08 20:15:00
1:35 PM,68.0,30.2,24,30.23,10.0,SSW,10.4,20.7,N/A,,Clear,210,2012-10-08 20:35:00
1:55 PM,68.0,30.2,24,30.22,10.0,SSW,13.8,20.7,N/A,,Clear,200,2012-10-08 20:55:00
2:15 PM,69.8,32.0,25,30.22,10.0,SSW,15.0,18.4,N/A,,Clear,210,2012-10-08 21:15:00
2:35 PM,68.0,32.0,26,30.22,10.0,SSW,8.1,16.1,N/A,,Clear,210,2012-10-08 21:35:00
2:55 PM,68.0,32.0,26,30.21,10.0,SSW,11.5,18.4,N/A,,Scattered Clouds,200,2012-10-08 21:55:00
3:15 PM,69.8,32.0,25,30.21,10.0,SSW,16.1,23.0,N/A,,Partly Cloudy,200,2012-10-08 22:15:00
3:35 PM,69.8,30.2,23,30.21,10.0,WSW,11.5,19.6,N/A,,Clear,240,2012-10-08 22:35:00
3:55 PM,68.0,28.4,23,30.21,10.0,WSW,12.7,20.7,N/A,,Clear,240,2012-10-08 22:55:00
4:15 PM,68.0,28.4,23,30.21,10.0,SW,9.2,16.1,N/A,,Clear,220,2012-10-08 23:15:00
4:35 PM,68.0,28.4,23,30.21,10.0,SSW,9.2,17.3,N/A,,Clear,210,2012-10-08 23:35:00
4:55 PM,68.0,28.4,23,30.21,10.0,WSW,9.2,16.1,N/A,,Clear,240,2012-10-08 23:55:00
5:15 PM,66.2,30.2,26,30.22,10.0,SW,12.7,-,N/A,,Clear,230,2012-10-09 00:15:00
5:35 PM,66.2,30.2,26,30.22,10.0,SW,8.1,17.3,N/A,,Clear,230,2012-10-09 00:35:00
6:15 PM,62.6,30.2,30,30.22,10.0,SSW,9.2,-,N/A,,Clear,210,2012-10-09 01:15:00
6:35 PM,62.6,30.2,30,30.22,10.0,SSW,8.1,-,N/A,,Clear,210,2012-10-09 01:35:00
7:15 PM,59.0,30.2,34,30.23,10.0,SSW,8.1,-,N/A,,Clear,200,2012-10-09 02:15:00
7:35 PM,57.2,30.2,36,30.24,10.0,SSW,5.8,-,N/A,,Clear,210,2012-10-09 02:35:00
7:55 PM,57.2,30.2,36,30.24,10.0,SSW,5.8,-,N/A,,Clear,200,2012-10-09 02:55:00
8:15 PM,57.2,30.2,36,30.25,10.0,SSW,6.9,-,N/A,,Clear,210,2012-10-09 03:15:00
8:35 PM,57.2,32.0,38,30.25,10.0,SW,8.1,-,N/A,,Clear,220,2012-10-09 03:35:00
8:55 PM,57.2,32.0,38,30.25,10.0,SW,9.2,-,N/A,,Clear,220,2012-10-09 03:55:00
9:15 PM,53.6,32.0,44,30.26,10.0,SSW,6.9,-,N/A,,Clear,200,2012-10-09 04:15:00
9:35 PM,53.6,32.0,44,30.26,10.0,South,5.8,-,N/A,,Clear,190,2012-10-09 04:35:00
9:55 PM,53.6,32.0,44,30.26,10.0,South,5.8,-,N/A,,Clear,180,2012-10-09 04:55:00
10:15 PM,48.2,30.2,50,30.27,10.0,SSE,5.8,-,N/A,,Clear,160,2012-10-09 05:15:00
10:35 PM,46.4,28.4,50,30.27,10.0,South,6.9,-,N/A,,Clear,170,2012-10-09 05:35:00
10:55 PM,48.2,30.2,50,30.27,10.0,South,6.9,-,N/A,,Clear,190,2012-10-09 05:55:00
11:15 PM,46.4,30.2,53,30.27,10.0,South,5.8,-,N/A,,Clear,180,2012-10-09 06:15:00
11:35 PM,42.8,28.4,57,30.26,10.0,South,5.8,-,N/A,,Clear,180,2012-10-09 06:35:00
11:55 PM,46.4,30.2,53,30.26,10.0,South,5.8,-,N/A,,Clear,180,2012-10-09 06:55:00